[[{"header":{"parameterUnit":"m.s-1","parameterCategory":1,"la1":30.2991,"la2":30.254,"lo1":-89.0895,"lo2":-89.0444,"dy":0.0017,"dx":0.0017,"nx":28,"ny":28,"refTime":"2025-07-25T03:00:00:Z","depth":0,"parameterNumber":2,"parameterNumberName":"U-component_of_WINDS"},"data":[0,0,0,0,0,0,0,0,0,0,0,0,0,0,0,0,0,0,0,0,0,0,0,0,0,0,0,0,0,0,0,0,0,0,0,0,0,0,0,0,0,0,0,0,0,0,0,0,0,0,0,0,0,0,0,0,0,0,-3.7295,-3.7295,0,-3.7324,-3.7325,-3.7325,-3.7301,-3.73,-3.73,-3.7299,-3.7327,-3.7328,-3.733,0,0,0,0,0,0,0,0,0,0,0,0,0,-3.7215,-3.7217,-3.7295,-3.7295,-3.7296,-3.7324,-3.7325,-3.7325,-3.7302,-3.73,-3.7299,-3.7298,-3.7326,-3.7328,-3.733,0,0,0,0,0,0,0,0,0,0,0,0,0,-3.7248,-3.7217,-3.7295,-3.7287,-3.7287,-3.7324,-3.7325,-3.7325,-3.7302,-3.73,-3.7299,-3.7298,-3.7326,-3.7328,-3.7331,-3.7376,0,0,-3.7338,-3.7339,0,0,0,0,0,0,0,0,-3.7246,-3.7251,-3.7288,-3.7288,-3.7288,-3.7308,-3.7307,-3.7342,-3.7302,-3.7296,-3.7299,-3.7297,-3.7322,-3.7324,-3.7333,-3.7377,-3.7378,-3.7338,-3.734,-3.7341,-3.7342,0,0,0,0,0,0,0,-3.7244,-3.7249,-3.7306,-3.7289,-3.7288,-3.7281,-3.7284,-3.7313,-3.7317,-3.7297,-3.7295,-3.7299,-3.7321,-3.7331,-3.7333,-3.7379,-3.7338,-3.7341,-3.7342,-3.7343,-3.7457,-3.7459,0,0,0,0,0,0,-3.7242,-3.7247,-3.7305,-3.7307,-3.7263,-3.7284,-3.7287,-3.7303,-3.7316,-3.7317,-3.73,-3.7298,-3.7327,-3.7331,-3.7334,-3.7385,-3.7341,-3.7343,-3.7345,-3.7456,-3.7457,-3.7459,0,0,0,0,0,0,-3.7241,-3.7248,-3.7304,-3.7277,-3.7284,-3.7287,-3.7304,-3.7304,-3.7314,-3.7319,-3.7319,-3.7309,-3.7326,-3.7331,-3.7365,-3.7386,-3.7344,-3.7347,-3.7454,-3.7456,-3.7458,-3.7489,0,0,0,0,0,0,-3.7239,-3.7247,-3.7266,-3.7278,-3.7285,-3.7335,-3.7306,-3.7306,-3.7318,-3.7315,-3.7328,-3.7328,-3.7325,-3.7361,-3.7367,-3.7388,-3.7349,-3.7452,-3.7455,-3.7457,-3.7486,-3.7492,-3.7497,0,0,0,0,0,-3.7236,-3.7274,-3.7267,-3.7274,-3.7308,-3.7337,-3.7341,-3.7337,-3.732,-3.7337,-3.734,-3.7328,-3.7383,-3.7365,-3.7372,-3.7394,-3.745,-3.7454,-3.7457,-3.7483,-3.749,-3.7497,0,0,0,0,0,0,-3.7264,-3.7275,-3.7268,-3.7311,-3.7323,-3.7333,-3.7355,-3.7345,-3.7362,-3.7359,-3.7353,-3.7356,-3.7391,-3.7396,-3.7376,-3.7436,-3.7414,-3.7419,-3.7431,-3.7438,-3.7444,-3.744,-3.7351,0,0,0,0,0,-3.7276,-3.7299,-3.7307,-3.7344,-3.735,-3.7351,-3.7364,-3.736,-3.7372,-3.7377,-3.7382,-3.7394,-3.7413,-3.7427,-3.7445,-3.7487,-3.7488,-3.7505,-3.7511,-3.7515,-3.7519,-3.7538,-3.7545,-3.747,-3.747,-3.747,0,0,-3.7299,-3.7308,-3.7323,-3.735,-3.7359,-3.7381,-3.7356,-3.7382,-3.7397,-3.7381,-3.7412,-3.7417,-3.7429,-3.7466,-3.7483,-3.7472,-3.754,-3.752,-3.7523,-3.7524,-3.7542,-3.7549,-3.7555,-3.7473,-3.7472,-3.7472,0,0,-3.7352,-3.7363,-3.7393,-3.7402,-3.7416,-3.7416,-3.7423,-3.7434,-3.7436,-3.7468,-3.7455,-3.7473,-3.7508,-3.7516,-3.7525,-3.7579,-3.7567,-3.7585,-3.7613,-3.7632,-3.7638,-3.7643,-3.7659,-3.7665,-3.7589,-3.7589,-3.759,0,-3.7379,-3.7413,-3.741,-3.7435,-3.7446,-3.7431,-3.746,-3.7469,-3.7488,-3.7495,-3.7483,-3.7524,-3.7532,-3.7569,-3.7581,-3.7591,-3.7596,-3.7583,-3.7637,-3.7642,-3.7647,-3.7662,-3.7669,-3.7591,-3.7591,-3.7591,-3.7591,0,-3.7444,-3.7468,-3.749,-3.7508,-3.7522,-3.7549,-3.7547,-3.7561,-3.7556,-3.7556,-3.7587,-3.7596,-3.7614,-3.7623,-3.7619,-3.7659,-3.7651,-3.7638,-3.7615,-3.7656,-3.767,-3.7676,-3.7594,-3.7593,-3.7593,-3.7592,0,0,-3.7516,-3.753,-3.7538,-3.7544,-3.7557,-3.7575,-3.76,-3.7618,-3.7629,-3.7642,-3.7662,-3.769,-3.7678,-3.7688,-3.7684,-3.77,-3.7738,-3.7685,-3.7685,-3.7692,-3.7779,-3.7787,-3.7794,-3.7731,-3.7732,-3.7733,-3.7777,0,-3.7567,-3.7612,-3.7608,-3.7649,-3.7669,-3.7655,-3.7676,-3.7686,-3.7687,-3.7703,-3.7705,-3.7723,-3.7707,-3.7713,-3.7729,-3.773,-3.7755,-3.7727,-3.7747,-3.7747,-3.7741,-3.7802,-3.781,-3.7851,-3.7783,-3.7784,-3.7785,0,-3.7633,-3.7647,-3.769,-3.7697,-3.7706,-3.7725,-3.7739,-3.7756,-3.7766,-3.7765,-3.7775,-3.7768,-3.7791,-3.7769,-3.78,-3.7781,-3.7789,-3.7791,-3.7792,-3.7792,-3.7767,-3.78,-3.7864,-3.7869,-3.7794,-3.7793,-3.7792,0,-3.7677,-3.7707,-3.7736,-3.7742,-3.7752,-3.7766,-3.777,-3.7779,-3.7789,-3.7801,-3.7807,-3.7823,-3.783,-3.7842,-3.7838,-3.7823,-3.7868,-3.7847,-3.7866,-3.7866,-3.7875,-3.7874,-3.7939,-3.7885,-3.7885,-3.7885,-3.7885,0,-3.7732,-3.7759,-3.7755,-3.7772,-3.78,-3.7795,-3.7822,-3.7825,-3.7832,-3.7849,-3.7838,-3.7854,-3.7849,-3.7864,-3.7861,-3.7885,-3.7889,-3.7888,-3.7886,-3.7887,-3.7887,-3.789,-3.7886,-3.7886,-3.7886,-3.7886,-3.7885,0,-3.7785,-3.7784,-3.7814,-3.782,-3.7822,-3.7842,-3.7847,-3.7863,-3.7863,-3.7883,-3.7888,-3.7888,-3.7905,-3.7902,-3.7921,-3.7919,-3.7948,-3.7945,-3.7944,-3.7943,-3.7961,-3.7958,-3.8028,-3.8036,-3.798,-3.798,-3.7981,0,-3.7819,-3.7839,-3.7847,-3.7857,-3.7862,-3.7879,-3.7888,-3.7884,-3.7894,-3.7905,-3.7918,-3.7934,-3.7946,-3.7973,-3.7974,-3.7988,-3.7982,-3.8006,-3.7984,-3.7984,-3.7979,-3.7977,-3.7977,-3.8009,-3.801,-3.8011,-3.8011,0,-3.7879,-3.7877,-3.7891,-3.7905,-3.7917,-3.7927,-3.7937,-3.7946,-3.7941,-3.7953,-3.797,-3.7979,-3.7997,-3.8012,-3.8024,-3.8028,-3.8018,-3.8018,-3.8023,-3.8023,-3.802,-3.8019,-3.7953,-3.8016,-3.8016,-3.8015,-3.8015,-3.8015,-3.7921,-3.7937,-3.7944,-3.7959,-3.7966,-3.7974,-3.7988,-3.7989,-3.8003,-3.8017,-3.8013,-3.8031,-3.8038,-3.8054,-3.8059,-3.8072,-3.8063,-3.8071,-3.8072,-3.8073,-3.8074,-3.8021,-3.8074,-3.8074,-3.8074,-3.8074,-3.8074,0,-3.7978,-3.7981,-3.7996,-3.8008,-3.802,-3.801,-3.8019,-3.8029,-3.8045,-3.8053,-3.8064,-3.8082,-3.8096,-3.8097,-3.811,-3.812,-3.8115,-3.8123,-3.8121,-3.8121,-3.8083,-3.8076,-3.8126,-3.8126,-3.8126,-3.8126,-3.8126,-3.8126,-3.8008,-3.8032,-3.803,-3.8057,-3.806,-3.8077,-3.8083,-3.809,-3.8095,-3.8115,-3.8126,-3.8127,-3.8132,-3.8144,-3.8156,-3.8156,-3.8159,-3.8168,-3.8166,-3.813,-3.8124,-3.8119,-3.8113,-3.817,-3.817,-3.8203,-3.8204,-3.8204]},{"header":{"parameterUnit":"m.s-1","parameterCategory":1,"la1":30.2991,"la2":30.254,"lo1":-89.0895,"lo2":-89.0444,"dy":0.0017,"dx":0.0017,"nx":28,"ny":28,"refTime":"2025-07-25T03:00:00:Z","depth":0,"parameterNumber":3,"parameterNumberName":"V-component_of_WINDS"},"data":[0,0,0,0,0,0,0,0,0,0,0,0,0,0,0,0,0,0,0,0,0,0,0,0,0,0,0,0,0,0,0,0,0,0,0,0,0,0,0,0,0,0,0,0,0,0,0,0,0,0,0,0,0,0,0,0,0,0,4.9644,4.9646,0,4.9833,4.9835,4.9837,4.9777,4.9773,4.9769,4.9765,4.9959,4.9968,4.9976,0,0,0,0,0,0,0,0,0,0,0,0,0,4.9228,4.9236,4.9643,4.9646,4.9648,4.9833,4.9835,4.9838,4.9778,4.9773,4.9768,4.9763,4.9956,4.9967,4.9977,0,0,0,0,0,0,0,0,0,0,0,0,0,4.9412,4.9239,4.9643,4.964,4.9642,4.9832,4.9835,4.9839,4.9779,4.9773,4.9767,4.9761,4.9952,4.9965,4.9979,5.0183,0,0,5.002,5.0025,0,0,0,0,0,0,0,0,4.9402,4.9428,4.9638,4.9641,4.9643,4.9775,4.976,4.9954,4.978,4.9727,4.9765,4.9758,4.9903,4.992,4.9969,5.0192,5.02,5.0021,5.0029,5.0035,5.0038,0,0,0,0,0,0,0,4.9389,4.9419,4.9718,4.9642,4.9645,4.9629,4.9649,4.9796,4.9846,4.9731,4.9727,4.9751,4.9903,4.9956,4.9973,5.0203,5.002,5.0032,5.0041,5.0046,5.0601,5.0607,0,0,0,0,0,0,4.9375,4.9409,4.9712,4.9724,4.9505,4.9642,4.9664,4.9739,4.9845,4.9855,4.9756,4.9747,4.9936,4.9957,4.9979,5.0223,5.0035,5.0047,5.0055,5.0594,5.0602,5.061,0,0,0,0,0,0,4.9366,4.9403,4.9705,4.9566,4.9603,4.9655,4.9741,4.9746,4.9799,4.9863,4.9872,4.9801,4.9932,4.996,5.0132,5.0229,5.0053,5.0065,5.0586,5.0597,5.0606,5.0714,0,0,0,0,0,0,4.9355,4.94,4.9478,4.9568,4.9611,4.9855,4.9747,4.9754,4.9822,4.9813,4.9908,4.9918,4.9929,5.0112,5.0145,5.0244,5.0076,5.0578,5.0591,5.0603,5.0702,5.0727,5.0748,0,0,0,0,0,4.934,4.9501,4.9483,4.952,4.971,4.9861,4.9885,4.9896,4.983,4.9909,4.995,4.9915,5.0214,5.0131,5.0167,5.0272,5.0572,5.0587,5.0602,5.0692,5.0722,5.0747,0,0,0,0,0,0,4.9422,4.9513,4.9493,4.9688,4.9767,4.985,4.995,4.9927,5.0026,5.0013,5.0022,5.0044,5.022,5.0263,5.0169,5.0474,5.0383,5.0406,5.0439,5.0468,5.049,5.0475,5.0087,0,0,0,0,0,4.9463,4.9578,4.9652,4.9816,4.9857,4.9897,4.9963,4.9965,5.0047,5.008,5.0133,5.0214,5.0326,5.04,5.0506,5.0709,5.0728,5.0799,5.0821,5.084,5.0859,5.0968,5.1,5.0659,5.0659,5.0659,0,0,4.9548,4.9612,4.9684,4.9834,4.9896,5.0014,4.9925,5.0055,5.0143,5.0099,5.0264,5.0307,5.0397,5.0585,5.067,5.0626,5.0958,5.0859,5.0873,5.0883,5.0986,5.1019,5.1047,5.067,5.0668,5.0666,0,0,4.9763,4.9824,4.9967,5.0031,5.0124,5.015,5.0184,5.0272,5.0298,5.0464,5.0433,5.0538,5.0731,5.0796,5.0855,5.1095,5.1066,5.113,5.1248,5.1354,5.1381,5.1405,5.1488,5.1519,5.1149,5.115,5.115,0,4.9857,5.0035,5.0044,5.0176,5.0242,5.0209,5.0353,5.0414,5.0538,5.0585,5.0534,5.0775,5.0834,5.1036,5.1094,5.1144,5.1182,5.1118,5.1376,5.14,5.1423,5.1503,5.1534,5.1157,5.1156,5.1155,5.1155,0,5.0144,5.0268,5.0373,5.0493,5.0571,5.0709,5.0739,5.0817,5.0812,5.0843,5.1011,5.1081,5.12,5.1249,5.1245,5.145,5.142,5.1373,5.1282,5.1462,5.1537,5.1568,5.1167,5.1164,5.1162,5.1161,0,0,5.0415,5.0539,5.0577,5.063,5.0732,5.0827,5.0964,5.108,5.1147,5.1234,5.1347,5.1512,5.1469,5.1536,5.1539,5.1632,5.1816,5.1574,5.1576,5.1615,5.2044,5.2077,5.2112,5.1798,5.1804,5.1809,5.2036,0,5.0637,5.0876,5.0888,5.1105,5.1218,5.1189,5.1307,5.1382,5.1414,5.1515,5.1551,5.1667,5.1603,5.1642,5.1733,5.1774,5.1902,5.1759,5.1902,5.1907,5.1878,5.2152,5.2188,5.2398,5.2065,5.207,5.2074,0,5.0928,5.1023,5.1251,5.1335,5.1384,5.149,5.1597,5.1695,5.1779,5.1796,5.1871,5.1861,5.1999,5.1905,5.2096,5.1998,5.2058,5.2087,5.2095,5.2107,5.2,5.217,5.2466,5.2497,5.2121,5.2117,5.2114,0,5.1099,5.1286,5.1446,5.1493,5.1596,5.1671,5.1717,5.1795,5.1864,5.1959,5.2004,5.2113,5.2173,5.2258,5.2278,5.2207,5.2468,5.2375,5.2485,5.2484,5.2539,5.2535,5.2847,5.2582,5.2581,5.2581,5.258,0,5.1345,5.1485,5.1524,5.1622,5.1778,5.1791,5.1945,5.1986,5.2056,5.2161,5.2143,5.2242,5.2263,5.2367,5.2384,5.2538,5.2566,5.2583,5.2585,5.2583,5.2581,5.2621,5.2606,5.2589,5.2587,5.2586,5.2584,0,5.1562,5.1594,5.1766,5.185,5.1874,5.1985,5.2056,5.215,5.2181,5.2314,5.2346,5.2394,5.2515,5.2544,5.2688,5.2699,5.2881,5.2871,5.2853,5.2851,5.2959,5.2947,5.3306,5.3353,5.3058,5.3061,5.3063,0,5.1716,5.1823,5.1918,5.1987,5.2036,5.2148,5.2219,5.2236,5.231,5.2414,5.2495,5.2614,5.2709,5.2904,5.2951,5.3061,5.3052,5.317,5.3068,5.3063,5.3051,5.3044,5.3054,5.3189,5.3192,5.3194,5.3196,0,5.1984,5.1994,5.2097,5.2205,5.229,5.2376,5.2458,5.2516,5.2544,5.2628,5.2751,5.2826,5.2973,5.309,5.3201,5.3248,5.3227,5.3228,5.3259,5.3257,5.3242,5.325,5.2903,5.322,5.3217,5.3216,5.3214,5.3213,5.2173,5.2266,5.2347,5.2461,5.2525,5.2602,5.2694,5.2736,5.2839,5.296,5.2964,5.3098,5.3179,5.3325,5.3379,5.3484,5.3447,5.3492,5.3504,5.3514,5.3522,5.3227,5.3504,5.3503,5.3503,5.3502,5.3502,0,5.2438,5.2489,5.2594,5.2709,5.2799,5.2773,5.2862,5.2939,5.3057,5.3134,5.3228,5.337,5.3484,5.3541,5.3653,5.3726,5.372,5.3755,5.3749,5.376,5.3549,5.351,5.3759,5.3759,5.3759,5.3759,5.3759,5.3758,5.2587,5.2743,5.2763,5.295,5.2999,5.313,5.3183,5.3254,5.3316,5.3474,5.3569,5.3605,5.3674,5.3792,5.3895,5.3909,5.395,5.3991,5.3999,5.3801,5.3775,5.375,5.3713,5.4,5.4,5.4201,5.4203,5.4204]}]]